When you browse on this site, cookies collect data to enhance your experience and personalize the content and advertising you see.
Visit our Privacy Policy to learn more. By continuing to use the site, you agree to this use of cookies and data.
  • In Czech Republic
  • List of Countries
  • For 7 days
  • Water Temperature
  • Weather Map
  • Weather Widgets
  • user-avatar
    Login

    Hourly Weather San Andres

    Today, 30 May, Saturday

    Time Temperature Precipitation Wind Pressure Humidity
    00:00 +15°C° 1.5 mm 1 mps 591 mmHg 93%
    01:00 +15°C° 1.5 mm 1 mps 591 mmHg 93%
    02:00 +14°C° 0.3 mm 0 mps 591 mmHg 93%
    03:00 +14°C° 0.3 mm 0 mps 591 mmHg 93%
    04:00 +14°C° 0.3 mm 0 mps 590 mmHg 93%
    05:00 +14°C° 0.1 mm 0 mps 591 mmHg 92%
    06:00 +15°C° 0.1 mm 0 mps 592 mmHg 91%
    07:00 +16°C° 0.1 mm 1 mps 592 mmHg 90%
    08:00 +18°C° 0.2 mm 1 mps 593 mmHg 88%
    09:00 +19°C° 0.2 mm 1 mps 593 mmHg 86%
    10:00 +20°C° 0.2 mm 1 mps 593 mmHg 83%
    11:00 +20°C° 0.7 mm 1 mps 593 mmHg 83%
    12:00 +21°C° 0.7 mm 1 mps 593 mmHg 83%
    13:00 +21°C° 0.7 mm 1 mps 593 mmHg 83%
    14:00 +20°C° 1.1 mm 1 mps 592 mmHg 85%
    15:00 +20°C° 1.1 mm 1 mps 591 mmHg 87%
    16:00 +19°C° 1.1 mm 1 mps 590 mmHg 89%
    17:00 +19°C° 1.4 mm 1 mps 590 mmHg 90%
    18:00 +18°C° 1.4 mm 1 mps 590 mmHg 91%
    19:00 +18°C° 1.4 mm 1 mps 591 mmHg 93%
    20:00 +16°C° 0.6 mm 1 mps 591 mmHg 92%
    21:00 +16°C° 0.6 mm 1 mps 591 mmHg 92%
    22:00 +16°C° 0.6 mm 1 mps 591 mmHg 92%
    23:00 +16°C° 0.1 mm 1 mps 591 mmHg 92%

    Tomorrow, 31 May, Sunday

    Time Temperature Precipitation Wind Pressure Humidity
    00:00 +15°C° 0.1 mm 1 mps 591 mmHg 92%
    01:00 +15°C° 0.1 mm 1 mps 591 mmHg 92%
    02:00 +15°C° 0 mm 1 mps 590 mmHg 92%
    03:00 +14°C° 0 mm 1 mps 590 mmHg 92%
    04:00 +14°C° 0 mm 1 mps 590 mmHg 92%
    05:00 +15°C° 0 mm 1 mps 591 mmHg 90%
    06:00 +15°C° 0 mm 1 mps 591 mmHg 88%
    07:00 +15°C° 0 mm 0 mps 592 mmHg 87%
    08:00 +18°C° 0.1 mm 1 mps 592 mmHg 84%
    09:00 +19°C° 0.1 mm 1 mps 593 mmHg 81%
    10:00 +21°C° 0.1 mm 1 mps 594 mmHg 79%
    11:00 +21°C° 0.8 mm 1 mps 593 mmHg 80%
    12:00 +21°C° 0.8 mm 1 mps 593 mmHg 81%
    13:00 +20°C° 0.8 mm 2 mps 592 mmHg 82%
    14:00 +21°C° 1.6 mm 1 mps 592 mmHg 85%
    15:00 +20°C° 1.6 mm 1 mps 591 mmHg 87%
    16:00 +19°C° 1.6 mm 1 mps 591 mmHg 90%
    17:00 +18°C° 3.1 mm 1 mps 591 mmHg 92%
    18:00 +18°C° 3.1 mm 1 mps 591 mmHg 94%
    19:00 +16°C° 3.1 mm 1 mps 591 mmHg 96%
    20:00 +16°C° 0.7 mm 1 mps 591 mmHg 96%
    21:00 +15°C° 0.7 mm 0 mps 592 mmHg 96%
    22:00 +15°C° 0.7 mm 0 mps 592 mmHg 95%
    23:00 +16°C° 0.8 mm 1 mps 592 mmHg 95%

    Day after tomorrow, 1 June, Monday

    Time Temperature Precipitation Wind Pressure Humidity
    00:00 +16°C° 0.8 mm 1 mps 591 mmHg 95%
    01:00 +16°C° 0.8 mm 1 mps 591 mmHg 95%
    02:00 +15°C° 0.5 mm 1 mps 591 mmHg 95%
    03:00 +14°C° 0.5 mm 0 mps 591 mmHg 95%
    04:00 +14°C° 0.5 mm 0 mps 591 mmHg 96%
    05:00 +14°C° 0.4 mm 0 mps 591 mmHg 95%
    06:00 +14°C° 0.4 mm 0 mps 591 mmHg 95%
    07:00 +14°C° 0.4 mm 0 mps 592 mmHg 95%
    08:00 +16°C° 0.3 mm 1 mps 592 mmHg 92%
    09:00 +18°C° 0.3 mm 1 mps 593 mmHg 90%
    10:00 +19°C° 0.3 mm 1 mps 594 mmHg 88%
    11:00 +19°C° 0.7 mm 1 mps 593 mmHg 88%
    12:00 +19°C° 0.7 mm 1 mps 593 mmHg 87%
    13:00 +19°C° 0.7 mm 1 mps 592 mmHg 87%
    14:00 +19°C° 0.7 mm 1 mps 592 mmHg 89%
    15:00 +19°C° 0.7 mm 1 mps 591 mmHg 91%
    16:00 +19°C° 0.7 mm 1 mps 591 mmHg 92%
    17:00 +18°C° 0.6 mm 1 mps 591 mmHg 93%
    18:00 +18°C° 0.6 mm 1 mps 591 mmHg 94%
    19:00 +15°C° 0.6 mm 0 mps 591 mmHg 95%
    20:00 +16°C° 0.7 mm 1 mps 591 mmHg 94%
    21:00 +16°C° 0.7 mm 1 mps 592 mmHg 93%
    22:00 +16°C° 0.7 mm 1 mps 592 mmHg 92%
    23:00 +15°C° 0.7 mm 1 mps 591 mmHg 92%

    2 June, Tuesday

    Time Temperature Precipitation Wind Pressure Humidity
    00:00 +15°C° 0.7 mm 1 mps 591 mmHg 92%
    01:00 +14°C° 0.7 mm 0 mps 591 mmHg 92%
    02:00 +14°C° 0 mm 0 mps 590 mmHg 92%
    03:00 +13°C° 0 mm 0 mps 590 mmHg 92%
    04:00 +14°C° 0 mm 1 mps 590 mmHg 91%
    05:00 +14°C° 0 mm 0 mps 591 mmHg 91%
    06:00 +14°C° 0 mm 0 mps 591 mmHg 90%
    07:00 +15°C° 0 mm 0 mps 592 mmHg 89%
    08:00 +18°C° 0.1 mm 1 mps 592 mmHg 85%
    09:00 +19°C° 0.1 mm 1 mps 593 mmHg 81%
    10:00 +21°C° 0.1 mm 1 mps 594 mmHg 77%
    11:00 +21°C° 0.6 mm 1 mps 593 mmHg 79%
    12:00 +21°C° 0.6 mm 1 mps 592 mmHg 80%
    13:00 +20°C° 0.6 mm 2 mps 592 mmHg 81%
    14:00 +20°C° 1 mm 1 mps 591 mmHg 83%
    15:00 +20°C° 1 mm 1 mps 591 mmHg 86%
    16:00 +19°C° 1 mm 1 mps 590 mmHg 88%
    17:00 +19°C° 1.8 mm 1 mps 590 mmHg 90%
    18:00 +18°C° 1.8 mm 1 mps 590 mmHg 92%
    19:00 +16°C° 1.8 mm 1 mps 591 mmHg 93%
    20:00 +16°C° 1.1 mm 1 mps 591 mmHg 93%
    21:00 +16°C° 1.1 mm 1 mps 591 mmHg 93%
    22:00 +15°C° 1.1 mm 1 mps 592 mmHg 93%
    23:00 +15°C° 0.2 mm 1 mps 591 mmHg 93%

    3 June, Wednesday

    Time Temperature Precipitation Wind Pressure Humidity
    00:00 +15°C° 0.2 mm 1 mps 591 mmHg 93%
    01:00 +15°C° 0.2 mm 1 mps 590 mmHg 94%
    02:00 +15°C° 0.1 mm 1 mps 590 mmHg 94%
    03:00 +14°C° 0.1 mm 0 mps 590 mmHg 95%
    04:00 +14°C° 0.1 mm 0 mps 590 mmHg 95%
    05:00 +14°C° 0.2 mm 0 mps 591 mmHg 95%
    06:00 +14°C° 0.2 mm 0 mps 591 mmHg 94%
    07:00 +14°C° 0.2 mm 0 mps 591 mmHg 93%
    08:00 +16°C° 0.3 mm 1 mps 592 mmHg 90%
    09:00 +18°C° 0.3 mm 1 mps 592 mmHg 86%
    10:00 +20°C° 0.3 mm 1 mps 593 mmHg 83%
    11:00 +20°C° 0.7 mm 1 mps 592 mmHg 83%
    12:00 +20°C° 0.7 mm 1 mps 592 mmHg 82%
    13:00 +20°C° 0.7 mm 1 mps 591 mmHg 82%
    14:00 +20°C° 1.3 mm 1 mps 591 mmHg 85%
    15:00 +19°C° 1.3 mm 1 mps 590 mmHg 88%
    16:00 +19°C° 1.3 mm 1 mps 590 mmHg 91%
    17:00 +18°C° 1.6 mm 1 mps 590 mmHg 92%
    18:00 +16°C° 1.6 mm 1 mps 590 mmHg 94%
    19:00 +16°C° 1.6 mm 1 mps 590 mmHg 95%
    20:00 +16°C° 1 mm 1 mps 590 mmHg 94%
    21:00 +15°C° 1 mm 1 mps 591 mmHg 93%
    22:00 +15°C° 1 mm 1 mps 591 mmHg 93%
    23:00 +15°C° 0.5 mm 1 mps 591 mmHg 93%

    4 June, Thursday

    Time Temperature Precipitation Wind Pressure Humidity
    00:00 +15°C° 0.5 mm 1 mps 591 mmHg 93%
    01:00 +15°C° 0.5 mm 1 mps 590 mmHg 93%
    02:00 +15°C° 0.5 mm 1 mps 590 mmHg 93%
    03:00 +15°C° 0.5 mm 1 mps 590 mmHg 93%
    04:00 +15°C° 0.5 mm 1 mps 590 mmHg 93%
    05:00 +15°C° 0 mm 1 mps 590 mmHg 92%
    06:00 +15°C° 0 mm 1 mps 591 mmHg 91%
    07:00 +16°C° 0 mm 1 mps 591 mmHg 91%
    08:00 +18°C° 0.1 mm 1 mps 592 mmHg 85%
    09:00 +20°C° 0.1 mm 1 mps 593 mmHg 80%
    10:00 +21°C° 0.1 mm 1 mps 593 mmHg 75%
    11:00 +22°C° 0.6 mm 1 mps 593 mmHg 74%
    12:00 +22°C° 0.6 mm 1 mps 593 mmHg 73%
    13:00 +23°C° 0.6 mm 1 mps 592 mmHg 73%
    14:00 +22°C° 1.1 mm 1 mps 592 mmHg 75%
    15:00 +22°C° 1.1 mm 1 mps 591 mmHg 77%
    16:00 +21°C° 1.1 mm 1 mps 590 mmHg 79%
    17:00 +19°C° 1.4 mm 2 mps 590 mmHg 83%
    18:00 +18°C° 1.4 mm 2 mps 590 mmHg 87%
    19:00 +16°C° 1.4 mm 2 mps 590 mmHg 90%
    20:00 +16°C° 0.9 mm 2 mps 590 mmHg 91%
    21:00 +16°C° 0.9 mm 1 mps 591 mmHg 91%
    22:00 +16°C° 0.9 mm 1 mps 591 mmHg 91%
    23:00 +15°C° 0.1 mm 1 mps 591 mmHg 90%
    Show more